Regional Weather Roundup
Issued by NWS Grand Forks, ND

Home | Current Version | Previous Version | Graphics & Text | Print | Product List | Glossary On
Versions: 1 2 3 4 5 6 7 8 9 10 11 12 13 14 15 16 17 18 19 20 21 22 23 24 25 26 27 28 29 30 31 32 33 34 35 36 37 38 39 40 41 42 43 44 45 46 47 48 49 50
000
ASUS43 KFGF 250110
RWRFGF
PRAIRIE TO PINES  WEATHER ROUNDUP
NATIONAL WEATHER SERVICE EASTERN NORTH DAKOTA/GRAND FORKS ND
800 PM CDT MON APR 24 2017

 **SATELLITE DATA USED TO AUGMENT SKY COVER AT AUTOMATED STATIONS**
 *****  WEATHER ACROSS EASTERN NORTH DAKOTA  *****

CITY           SKY/WX    TMP DP  RH WIND       PRES   REMARKS
GRAND FORKS    CLOUDY    36  34  92 N17       29.64R
GRAND FRKS AFB CLOUDY    33  33  99 N16       29.65R WCI  23
DEVILS LAKE    CLOUDY    32  29  88 N22       29.70R WCI  19
FARGO          CLOUDY    40  39  97 N20       29.56R
WAHPETON ARPT  CLOUDY    43  39  87 NW15G21   29.54S
$$

 ***** WEATHER ACROSS CENTRAL AND WESTERN NORTH DAKOTA  *****

CITY           SKY/WX    TMP DP  RH WIND       PRES   REMARKS
BISMARCK       CLOUDY    36  30  79 N13       29.70F
MINOT          CLOUDY    34  28  79 NE14      29.75S WCI  25
JAMESTOWN      CLOUDY    34  33  96 N15       29.64R WCI  24
MINOT AFB      CLOUDY    33  26  77 NE14      29.75S WCI  23
GARRISON         N/A     32  28  85 NE9       29.72S WCI  24
WILLISTON      CLOUDY    33  27  78 NE14      29.77R WCI  23
DICKINSON      CLOUDY    33  28  81 NE16      29.67R WCI  23
HETTINGER      CLOUDY    38  33  82 NE16      29.66S
$$

 *****  OTHER AIRPORT OBSERVATIONS IN OUR AREA  *****

CITY           SKY/WX    TMP DP  RH WIND       PRES   REMARKS
WALHALLA       NOT AVBL
GRAFTON AIRPOR CLOUDY    32  32 100 N18G24    29.69F FOG     WCI  20
VALLEY CITY AR MIX PCPN  34  34 100 N16G23    29.64R WCI  23
CANDO          NOT AVBL
CAVALIER APRT  CLOUDY    32  30  93 N15       29.72R WCI  22
GWINNER        CLOUDY    39  36  87 MISG      29.59R
SHEYENNE NWR     N/A     38  36  91 N12       29.95S
ROLLA          CLOUDY    30  30 100 NE17      29.75R WCI  18
 ***** THE ABOVE OBSERVATIONS ARE NON NWS ARE NOT QUALITY
       CONTROLLED AND MAY MIS-REPORT RAIN FOR SNOW...
$$

  *****  WEATHER ACROSS NORTHERN MINNESOTA  *****

CITY           SKY/WX    TMP DP  RH WIND       PRES   REMARKS
FLAG ISLAND    DRIZZLE   30  28  93 NE14G21   29.69F WCI  20
WARROAD        DRIZZLE   34  28  80 NE20G25   29.68S WCI  22
ROSEAU         CLOUDY    34  28  80 NE17      29.67R WCI  23
HALLOCK        CLOUDY    34  32  93 N14       29.68S WCI  24
THF RVR FALLS  CLOUDY    35  34  96 NE18      29.59F WCI  24
BAUDETTE       MIX PCPN  34  32  92 NE8       29.64S FOG
WASKISH        RAIN      39  37  93 E13G18    29.61S
CROOKSTON      CLOUDY    37  36  93 NE12G17   29.61S
STEPHEN NDAWN    N/A     34  32  93 N14         N/A  WCI  24
GREENBUSH NDAW   N/A     32  32 100 NE15        N/A  WCI  22
$$
  *****  WEATHER ACROSS CENTRAL AND WEST MINNESOTA  *****

CITY           SKY/WX    TMP DP  RH WIND       PRES   REMARKS
FOSSTON        CLOUDY    39  39 100 N8        29.56R
BEMIDJI        LGT RAIN  42  42  99 E7        29.56F
PARK RAPIDS    LGT RAIN  50  47  89 E5        29.54S
ELBOW LAKE     CLOUDY    51  49  90 NE7       29.50S
WADENA         RAIN      50  46  87 E6        29.53R
DETROIT LAKES  MOCLDY    50  46  87 CALM      29.53F
MOORHEAD       CLOUDY    41  37  87 N18G24    29.56R
FERGUS FALLS   CLOUDY    52  50  93 NW8       29.50S
MORRIS MN      MOCLDY    55  48  76 NW13      29.49R
STAPLES        RAIN      50  46  87 N5        29.53S
$$
  *****  WEATHER ELSEWHERE ACROSS MINNESOTA  *****

CITY           SKY/WX    TMP DP  RH WIND       PRES   REMARKS
DULUTH         CLOUDY    36  32  85 E15       29.68R
INTRNTL FALLS  LGT RAIN  36  34  92 E16G25    29.67S FOG
ELY            CLOUDY    37  28  70 E7        29.68S
CLOQUET        CLOUDY    36  30  80 E7        29.70R
WHEATON        CLOUDY    46  43  87 NW10G18   29.55R
BRAINERD       CLOUDY    55  42  61 E5        29.55F
HIBBING        CLOUDY    39  31  72 SE9       29.67R
ALEXANDRIA     CLOUDY    59  41  51 SE9       29.50F
SAINT CLOUD    CLOUDY    59  41  51 CALM      29.53F
MINNEAPOLIS    CLOUDY    68  31  25 S13       29.56F
$$

  *****  WEATHER ACROSS SOUTH DAKOTA  *****

CITY           SKY/WX    TMP DP  RH WIND       PRES   REMARKS
SIOUX FALLS    MOCLDY    61  47  59 NW12      29.50R
BROOKINGS      MOCLDY    56  45  66 W3        29.51R
WATERTOWN      MOCLDY    53  44  71 NW13      29.52R
HURON          FAIR      50  39  66 NW20G25   29.56R
SISSETON         N/A     44  41  89 N23       29.53R
ABERDEEN       CLOUDY    41  33  73 N16       29.62R
MITCHELL       FAIR      56  42  59 NW10      29.56R
PIERRE         FAIR      46  37  71 N16       29.61R
MOBRIDGE       CLOUDY    42  32  67 N12       29.63S
RAPID CITY     FAIR      54  38  54 NE13      29.58S
$$

  *****  SOME WEATHER IN NEARBY STATES *****

CITY           SKY/WX    TMP DP  RH WIND       PRES   REMARKS
GLASGOW MT     PTSUNNY   38  28  67 E20       29.72R
GREAT FALLS MT PTSUNNY   49  36  61 NE16      29.59R
CHEYENNE WY    LGT RAIN  44  40  85 N8        29.62F
SCOTTSBLUFF NE LGT RAIN  57  37  47 N13       29.58S
OMAHA NE       MOCLDY    72  42  34 S12G22    29.51S
DES MOINES IA  FAIR      68  31  25 S8        29.59S
DAVENPORT IA   FAIR      64  30  27 SE10      29.69S
CHICAGO IL     MOCLDY    61  32  33 E10       29.76F
EAU CLAIRE WI  MOCLDY    66  29  24 S12       29.63S
LA CROSSE WI   FAIR      69  32  25 SE7       29.62F
$$

  *****  SOME NATIONAL WEATHER *****

CITY           SKY/WX    TMP DP  RH WIND       PRES   REMARKS
LA GUARDIA NY  MOCLDY    52  46  80 NE9       30.13R
RALEIGH NC     RAIN      60  58  92 NE17      29.70F FOG
ATLANTA GA     MOCLDY    62  58  86 NW9       29.73S
NEW ORLEANS LA FAIR      67  54  63 W3        29.80R
OKLAHOMA CITY  MOCLDY    68  50  52 S14       29.58F
ALBUQUERQUE NM MOCLDY    76  13   9 W23G30    29.68F
SALT LAKE CITY RAIN      48  41  76 NW16G29   29.73R
LOS ANGELES CA PTSUNNY   63  52  67 W17       29.88S
BOISE ID       CLOUDY    50  39  66 W15       29.72R
SEATTLE WA     FAIR      57  40  52 N9        29.79R
$$

*** WEATHER ACROSS MANITOBA...SASKATCHEWAN AND ONTARIO ***
                ***ONTARIO***

CITY           SKY/WX    TMP DP  RH WIND       PRES   REMARKS
GERALDTON      CLOUDY    30  25  80 E16G25    29.98F WCI  19
THUNDER BAY    CLOUDY    37  30  75 E16G24    29.83F
SIOUX LOOKOUT  SNOW      27  25  93 E6        29.83R VSB 1/2 WCI  20
TORONTO        PTCLDY    48  32  53 E7        30.07R
BIG TROUT LK   CLEAR     21   3  45 NE9G18    30.21R WCI  11
PICKLE LAKE    LGT SNOW  25  23  93 E13G18    30.03R VSB 3/4 WCI  13
DRYDEN         LGT SNOW  28  27  93 NE16G23   29.76F WCI  17
KENORA         FRZ DRZL  28  27  93 NE14G24   29.74S WCI  17
$$
                *** MANITOBA***

CITY           SKY/WX    TMP DP  RH WIND       PRES   REMARKS
BRANDON        FLURRIES  32  27  80 NE14      29.84R WCI  22
DAUPHIN        CLOUDY    34  21  60 NE13G22   29.93R WCI  25
ISLAND LAKE    NOT AVBL
PILOT MOUND      N/A     30  27  86 NE16G23     N/A  WCI  19
THE PAS        MOCLDY    32   5  32 E7        30.07R
THOMPSON       PTCLDY    23  -2  33 NE9       30.21R WCI  13
WINNIPEG       CLOUDY    32  27  80 NE21G28   29.80S WCI  20
LYNN LAKE      CLEAR     21   3  45 E9        30.16S WCI  11
CHURCHILL      FLURRIES   3  -2  78 N6        30.43R WCI  -8
GILLAM         PTCLDY    10  -4  52 E7        30.33S WCI   0
$$
                ***SASKATCHEWAN***

CITY           SKY/WX    TMP DP  RH WIND       PRES   REMARKS
ESTEVAN        FRZ DRZL  28  27  93 NE12G18   29.82R WCI  18
KINDERSLEY     CLOUDY    32  27  80 E17G24    29.80R WCI  21
LLOYDMINSTER   LGT SNOW  32  30  93 E13       29.84R WCI  22
PRINCE ALBERT  FLURRIES  32  25  74 E14       29.96R WCI  22
REGINA         CLOUDY    30  23  74 E16       29.86S WCI  19
YORKTON        CLOUDY    30  23  74 E10G17    29.91R WCI  21
N. BATTLEFORD  CLOUDY    30  30 100 E16       29.91R WCI  19
LA RONGE       CLOUDY    32  21  64 E7        30.03R
SASKATOON      CLOUDY    30  25  80 SE14G20   29.92R WCI  20
SWIFT CURRENT  CLOUDY    30  27  86 E17G23    29.76R WCI  18
$$
NOTE: THESE ARE AUTOMATED STATIONS WITH LIMITED QUALITY CONTROL
      "FAIR" INDICATES FEW OR NO CLOUDS BELOW 12,000 FEET WITH NO
      SIGNIFICANT WEATHER AND/OR OBSTRUCTIONS TO VISIBILITY.
      SKY/WX - SKY CONDITION AND SIGNIFICANT WEATHER.
      TMP - AIR TEMPERATURE.    DP   - DEWPOINT TEMPERATURE.
      RH  - RELATIVE HUMIDITY.  PRES - PRESSURE.
      HX  - HEAT INDEX.         WCI  - WIND CHILL INDEX.
$



USA.gov is the U.S. government's official web portal to all federal, state and local government web resources and services.